TVS56T LKTB-LTAI

Flight info

Callsign TVS56T
Flight time 2h 20m
Altitude 37000
Route ODNEM M748 BERVA DCT TEGRI DCT ADORU UG80 EKI UL606 CRD UL854 KOZLU
Aircraft B738/M-SDE3FGHIJ1RWXY/LB1

Departure

Time 2026-04-26 10:50
Airport Brno-Tuřany Airport (LKTB)

Arrival

Time 2026-04-26 13:10
Airport Antalya International Airport (LTAI)
Time Latitude Longitude Altitude Speed Heading
2026-04-26 10:15 49.15374 16.69252 794 ft 0 kts 191°
2026-04-26 10:46 49.15337 16.69246 802 ft 12 kts 183°
2026-04-26 10:47 49.15212 16.69225 800 ft 21 kts 187°
2026-04-26 10:47 49.15137 16.69367 799 ft 20 kts 96°
2026-04-26 10:47 49.15118 16.69583 799 ft 23 kts 98°
2026-04-26 10:47 49.15093 16.69869 796 ft 30 kts 97°
2026-04-26 10:48 49.15066 16.70181 797 ft 29 kts 97°
2026-04-26 10:48 49.15040 16.70475 797 ft 27 kts 97°
2026-04-26 10:48 49.15017 16.70751 798 ft 25 kts 97°
2026-04-26 10:48 49.14995 16.70993 800 ft 21 kts 97°
2026-04-26 10:49 49.15003 16.71120 799 ft 7 kts 70°
2026-04-26 10:49 49.14991 16.71155 798 ft 2 kts 166°
2026-04-26 10:49 49.14983 16.71137 798 ft 5 kts 257°
2026-04-26 10:49 49.14998 16.70961 799 ft 43 kts 277°
2026-04-26 10:50 49.15069 16.70141 798 ft 111 kts 278°
2026-04-26 10:50 49.15146 16.69221 800 ft 147 kts 276°
2026-04-26 10:50 49.15315 16.66920 1469 ft 163 kts 277°
2026-04-26 10:50 49.15426 16.65169 2333 ft 171 kts 278°
2026-04-26 10:51 49.15587 16.63351 3188 ft 176 kts 276°
2026-04-26 10:51 49.14230 16.60354 4645 ft 213 kts 202°
2026-04-26 10:51 49.12668 16.60342 4913 ft 247 kts 162°
2026-04-26 10:52 49.11142 16.61858 5228 ft 280 kts 137°
2026-04-26 10:52 49.09756 16.63915 5887 ft 289 kts 137°
2026-04-26 10:52 49.08224 16.65939 6734 ft 294 kts 141°
2026-04-26 10:52 49.06743 16.68125 7570 ft 298 kts 128°
2026-04-26 10:53 49.05538 16.70719 8427 ft 302 kts 122°
2026-04-26 10:53 49.04395 16.73443 9238 ft 307 kts 121°
2026-04-26 10:53 49.03242 16.76220 10066 ft 312 kts 121°
2026-04-26 10:54 49.00785 16.81998 10923 ft 346 kts 122°
2026-04-26 10:54 48.99417 16.85136 11257 ft 364 kts 123°
2026-04-26 10:54 48.97990 16.88375 11888 ft 371 kts 123°
2026-04-26 10:54 48.96535 16.91656 12644 ft 376 kts 123°
2026-04-26 10:55 48.95065 16.94963 13464 ft 379 kts 124°
2026-04-26 10:55 48.93578 16.98299 14230 ft 384 kts 124°
2026-04-26 10:55 48.92067 17.01681 14900 ft 389 kts 124°
2026-04-26 10:55 48.91059 17.03934 15375 ft 392 kts 124°
2026-04-26 10:56 48.89012 17.08515 16321 ft 398 kts 124°
2026-04-26 10:56 48.87427 17.12055 17011 ft 403 kts 124°
2026-04-26 10:56 48.85856 17.15554 17676 ft 408 kts 125°
2026-04-26 10:56 48.84092 17.18948 18332 ft 412 kts 134°
2026-04-26 10:57 48.82098 17.22126 18957 ft 416 kts 136°
2026-04-26 10:57 48.80061 17.25274 19567 ft 420 kts 136°
2026-04-26 10:57 48.78014 17.28447 20171 ft 424 kts 136°
2026-04-26 10:57 48.75956 17.31678 20728 ft 428 kts 135°
2026-04-26 10:58 48.73882 17.34965 21279 ft 433 kts 135°
2026-04-26 10:58 48.71798 17.38274 21844 ft 436 kts 135°
2026-04-26 10:58 48.69691 17.41619 22417 ft 440 kts 136°
2026-04-26 10:58 48.67572 17.44975 22963 ft 444 kts 136°
2026-04-26 10:59 48.65425 17.48372 23491 ft 448 kts 136°
2026-04-26 10:59 48.63254 17.51801 23962 ft 452 kts 136°
2026-04-26 10:59 48.61074 17.55245 24415 ft 456 kts 136°
2026-04-26 10:59 48.58892 17.58741 24862 ft 458 kts 135°
2026-04-26 11:00 48.56712 17.62265 25300 ft 461 kts 135°
2026-04-26 11:00 48.54528 17.65807 25825 ft 461 kts 135°
2026-04-26 11:00 48.52328 17.69371 26194 ft 466 kts 135°
2026-04-26 11:00 48.50103 17.72966 26537 ft 471 kts 135°
2026-04-26 11:01 48.47861 17.76581 26946 ft 473 kts 135°
2026-04-26 11:01 48.45609 17.80202 27373 ft 475 kts 135°
2026-04-26 11:01 48.43340 17.83845 27782 ft 478 kts 135°
2026-04-26 11:01 48.41059 17.87500 28159 ft 481 kts 136°
2026-04-26 11:02 48.38758 17.91181 28516 ft 484 kts 136°
2026-04-26 11:02 48.36449 17.94870 28874 ft 486 kts 136°
2026-04-26 11:02 48.34120 17.98584 29236 ft 489 kts 136°
2026-04-26 11:02 48.31784 18.02305 29586 ft 491 kts 136°
2026-04-26 11:03 48.29430 18.06051 29936 ft 494 kts 136°
2026-04-26 11:03 48.27060 18.09815 30248 ft 496 kts 136°
2026-04-26 11:03 48.24689 18.13575 30511 ft 499 kts 136°
2026-04-26 11:03 48.22295 18.17369 30791 ft 501 kts 136°
2026-04-26 11:04 48.19896 18.21163 31082 ft 502 kts 136°
2026-04-26 11:04 48.17524 18.24910 31402 ft 502 kts 136°
2026-04-26 11:04 48.15126 18.28692 31803 ft 501 kts 136°
2026-04-26 11:04 48.12728 18.32471 32221 ft 499 kts 136°
2026-04-26 11:05 48.10338 18.36229 32588 ft 498 kts 136°
2026-04-26 11:05 48.07947 18.39985 32948 ft 498 kts 136°
2026-04-26 11:05 48.05557 18.43732 33277 ft 497 kts 136°
2026-04-26 11:05 48.03176 18.47460 33674 ft 496 kts 136°
2026-04-26 11:06 48.00796 18.51181 34037 ft 495 kts 136°
2026-04-26 11:06 47.99223 18.53636 34251 ft 494 kts 136°
2026-04-26 11:06 47.96040 18.58600 34629 ft 494 kts 136°
2026-04-26 11:06 47.93668 18.62294 34925 ft 493 kts 136°
2026-04-26 11:07 47.92097 18.64736 35127 ft 492 kts 136°
2026-04-26 11:07 47.89700 18.68459 35398 ft 492 kts 136°
2026-04-26 11:07 47.87358 18.72090 35669 ft 491 kts 136°
2026-04-26 11:07 47.84992 18.75755 35956 ft 491 kts 136°
2026-04-26 11:08 47.82629 18.79410 36244 ft 489 kts 136°
2026-04-26 11:08 47.80270 18.83054 36560 ft 488 kts 136°
2026-04-26 11:08 47.77920 18.86678 36854 ft 486 kts 136°
2026-04-26 11:08 47.75574 18.90291 37099 ft 486 kts 136°
2026-04-26 11:09 47.70856 18.97540 37129 ft 489 kts 136°
2026-04-26 11:09 47.66126 19.04789 37119 ft 488 kts 136°
2026-04-26 11:10 47.61399 19.12015 37130 ft 487 kts 136°
2026-04-26 11:10 47.56674 19.19217 37127 ft 487 kts 136°
2026-04-26 11:11 47.51957 19.26386 37128 ft 486 kts 136°
2026-04-26 11:11 47.47235 19.33545 37133 ft 486 kts 136°
2026-04-26 11:12 47.42513 19.40682 37132 ft 485 kts 136°
2026-04-26 11:12 47.37786 19.47808 37121 ft 486 kts 136°
2026-04-26 11:13 47.33056 19.54920 37113 ft 486 kts 136°
2026-04-26 11:13 47.28323 19.62017 37099 ft 486 kts 136°
2026-04-26 11:14 47.23575 19.69115 37088 ft 486 kts 136°
2026-04-26 11:14 47.18820 19.76208 37090 ft 487 kts 136°
2026-04-26 11:15 47.14067 19.83277 37090 ft 487 kts 136°
2026-04-26 11:15 47.09295 19.90354 37093 ft 487 kts 136°
2026-04-26 11:16 47.04520 19.97417 37076 ft 487 kts 136°
2026-04-26 11:16 46.99743 20.04464 37073 ft 487 kts 136°
2026-04-26 11:17 46.94960 20.11502 37073 ft 487 kts 136°
2026-04-26 11:17 46.90212 20.18468 37069 ft 487 kts 136°
2026-04-26 11:18 46.85402 20.25507 37065 ft 486 kts 136°
2026-04-26 11:18 46.80652 20.32441 37065 ft 486 kts 136°
2026-04-26 11:19 46.75871 20.39399 37057 ft 485 kts 136°
2026-04-26 11:19 46.71096 20.46332 37058 ft 484 kts 136°
2026-04-26 11:20 46.67093 20.52130 37056 ft 484 kts 136°
2026-04-26 11:20 46.61544 20.60145 37054 ft 483 kts 136°
2026-04-26 11:21 46.56777 20.67011 37076 ft 483 kts 136°
2026-04-26 11:21 46.52012 20.73856 37057 ft 481 kts 136°
2026-04-26 11:22 46.47250 20.80681 37046 ft 480 kts 136°
2026-04-26 11:22 46.42493 20.87480 37050 ft 479 kts 136°
2026-04-26 11:23 46.37748 20.94244 37049 ft 478 kts 136°
2026-04-26 11:23 46.33000 21.00997 37049 ft 477 kts 136°
2026-04-26 11:24 46.28265 21.07715 37048 ft 477 kts 136°
2026-04-26 11:24 46.23512 21.14397 37046 ft 477 kts 137°
2026-04-26 11:25 46.18718 21.20996 37049 ft 476 kts 137°
2026-04-26 11:25 46.13909 21.27584 37047 ft 476 kts 137°
2026-04-26 11:26 46.09106 21.34163 37046 ft 477 kts 137°
2026-04-26 11:26 46.04298 21.40745 37048 ft 477 kts 137°
2026-04-26 11:27 45.99489 21.47313 37043 ft 477 kts 137°
2026-04-26 11:27 45.94702 21.53836 37042 ft 477 kts 137°
2026-04-26 11:28 45.89887 21.60380 37035 ft 477 kts 137°
2026-04-26 11:28 45.85074 21.66904 37031 ft 476 kts 137°
2026-04-26 11:29 45.80262 21.73411 37032 ft 475 kts 137°
2026-04-26 11:29 45.75456 21.79893 37025 ft 474 kts 137°
2026-04-26 11:30 45.71439 21.85299 37025 ft 473 kts 137°
2026-04-26 11:30 45.65859 21.92789 37022 ft 473 kts 137°
2026-04-26 11:31 45.61067 21.99205 37020 ft 472 kts 137°
2026-04-26 11:31 45.56274 22.05605 37019 ft 472 kts 137°
2026-04-26 11:32 45.51480 22.11992 37018 ft 471 kts 137°
2026-04-26 11:32 45.46687 22.18363 37014 ft 471 kts 137°
2026-04-26 11:33 45.41881 22.24734 37014 ft 472 kts 137°
2026-04-26 11:33 45.37071 22.31095 37014 ft 473 kts 137°
2026-04-26 11:34 45.32247 22.37459 37006 ft 474 kts 137°
2026-04-26 11:34 45.27409 22.43827 37005 ft 475 kts 137°
2026-04-26 11:35 45.22554 22.50201 37005 ft 476 kts 137°
2026-04-26 11:35 45.18507 22.55503 36998 ft 477 kts 137°
2026-04-26 11:36 45.12793 22.62969 36985 ft 479 kts 137°
2026-04-26 11:36 45.07895 22.69354 36984 ft 479 kts 137°
2026-04-26 11:37 45.02984 22.75739 36966 ft 479 kts 138°
2026-04-26 11:37 44.98069 22.82113 36964 ft 479 kts 138°
2026-04-26 11:38 44.93164 22.88459 36963 ft 478 kts 138°
2026-04-26 11:38 44.88260 22.94788 36959 ft 477 kts 138°
2026-04-26 11:39 44.83374 23.01080 36959 ft 475 kts 138°
2026-04-26 11:39 44.78503 23.07336 36950 ft 473 kts 138°
2026-04-26 11:40 44.73681 23.13516 36952 ft 471 kts 138°
2026-04-26 11:40 44.68840 23.19704 36957 ft 470 kts 138°
2026-04-26 11:42 44.49510 23.44271 36957 ft 470 kts 138°
2026-04-26 11:43 44.44646 23.50416 36950 ft 471 kts 138°
2026-04-26 11:43 44.39773 23.56559 36950 ft 472 kts 138°
2026-04-26 11:44 44.34882 23.62709 36949 ft 473 kts 138°
2026-04-26 11:44 44.29982 23.68857 36946 ft 474 kts 138°
2026-04-26 11:45 44.25063 23.75016 36942 ft 475 kts 138°
2026-04-26 11:45 44.20139 23.81165 36938 ft 475 kts 138°
2026-04-26 11:46 44.15207 23.87309 36944 ft 476 kts 138°
2026-04-26 11:46 44.10272 23.93442 36948 ft 476 kts 139°
2026-04-26 11:47 44.05339 23.99560 36943 ft 475 kts 139°
2026-04-26 11:47 44.00404 24.05665 36947 ft 475 kts 139°
2026-04-26 11:48 43.96447 24.10550 36945 ft 474 kts 139°
2026-04-26 11:48 43.91488 24.16659 36944 ft 473 kts 139°
2026-04-26 11:49 43.86600 24.22668 36949 ft 473 kts 139°
2026-04-26 11:49 43.81674 24.28709 36946 ft 472 kts 139°
2026-04-26 11:50 43.76753 24.34730 36944 ft 472 kts 139°
2026-04-26 11:50 43.71836 24.40733 36950 ft 471 kts 139°
2026-04-26 11:51 43.66914 24.46728 36947 ft 471 kts 139°
2026-04-26 11:51 43.61992 24.52710 36947 ft 471 kts 139°
2026-04-26 11:52 43.57868 24.57711 36949 ft 471 kts 140°
2026-04-26 11:52 43.52145 24.64635 36958 ft 471 kts 140°
2026-04-26 11:53 43.47222 24.70577 36950 ft 471 kts 140°
2026-04-26 11:54 43.40627 24.78517 36956 ft 470 kts 140°
2026-04-26 11:54 43.35699 24.84434 36957 ft 470 kts 140°
2026-04-26 11:55 43.30796 24.90308 36955 ft 470 kts 141°
2026-04-26 11:55 43.25857 24.96212 36959 ft 471 kts 141°
2026-04-26 11:56 43.20916 25.02104 36963 ft 472 kts 141°
2026-04-26 11:56 43.15921 25.08048 36959 ft 472 kts 141°
2026-04-26 11:57 43.10989 25.13904 36959 ft 473 kts 141°
2026-04-26 11:57 43.06014 25.19798 36966 ft 474 kts 141°
2026-04-26 11:58 43.01024 25.25696 36965 ft 475 kts 141°
2026-04-26 11:58 42.96017 25.31601 36956 ft 475 kts 142°
2026-04-26 11:59 42.91005 25.37499 36953 ft 476 kts 142°
2026-04-26 11:59 42.85988 25.43389 36958 ft 476 kts 142°
2026-04-26 12:00 42.80959 25.49281 36951 ft 477 kts 142°
2026-04-26 12:00 42.75924 25.55167 36957 ft 477 kts 142°
2026-04-26 12:01 42.70884 25.61046 36958 ft 477 kts 142°
2026-04-26 12:01 42.65836 25.66921 36962 ft 478 kts 142°
2026-04-26 12:02 42.60791 25.72778 36955 ft 477 kts 142°
2026-04-26 12:02 42.55742 25.78628 36964 ft 477 kts 142°
2026-04-26 12:03 42.50699 25.84458 36944 ft 476 kts 142°
2026-04-26 12:03 42.45664 25.90266 36947 ft 475 kts 142°
2026-04-26 12:04 42.40630 25.96060 36951 ft 475 kts 142°
2026-04-26 12:04 42.35600 26.01838 36954 ft 474 kts 142°
2026-04-26 12:05 42.30571 26.07600 36952 ft 474 kts 142°
2026-04-26 12:05 42.25544 26.13349 36955 ft 474 kts 142°
2026-04-26 12:06 42.20544 26.19054 36961 ft 474 kts 142°
2026-04-26 12:06 42.15513 26.24782 36958 ft 474 kts 142°
2026-04-26 12:07 42.10468 26.30514 36961 ft 474 kts 142°
2026-04-26 12:07 42.05385 26.36278 36960 ft 474 kts 142°
2026-04-26 12:08 42.00368 26.41954 36964 ft 474 kts 142°
2026-04-26 12:08 41.95317 26.47657 36959 ft 475 kts 142°
2026-04-26 12:09 41.90254 26.53363 36969 ft 475 kts 142°
2026-04-26 12:09 41.85121 26.58925 36966 ft 474 kts 146°
2026-04-26 12:10 41.79736 26.64009 36968 ft 473 kts 148°
2026-04-26 12:10 41.74298 26.68989 36967 ft 473 kts 149°
2026-04-26 12:11 41.68754 26.73745 36965 ft 473 kts 150°
2026-04-26 12:11 41.63178 26.78440 36967 ft 473 kts 150°
2026-04-26 12:12 41.57617 26.83149 36968 ft 474 kts 149°
2026-04-26 12:12 41.52060 26.87876 36971 ft 474 kts 149°
2026-04-26 12:13 41.46500 26.92608 36972 ft 474 kts 149°
2026-04-26 12:13 41.40956 26.97317 36967 ft 474 kts 149°
2026-04-26 12:14 41.35386 27.02037 36970 ft 473 kts 149°
2026-04-26 12:14 41.29834 27.06732 36974 ft 473 kts 149°
2026-04-26 12:15 41.24277 27.11421 36970 ft 472 kts 149°
2026-04-26 12:15 41.18761 27.16066 36970 ft 472 kts 149°
2026-04-26 12:16 41.13214 27.20727 36974 ft 472 kts 149°
2026-04-26 12:16 41.07670 27.25377 36972 ft 472 kts 149°
2026-04-26 12:17 41.02116 27.30025 36977 ft 472 kts 149°
2026-04-26 12:17 40.96567 27.34660 36978 ft 472 kts 149°
2026-04-26 12:18 40.91016 27.39288 36982 ft 472 kts 148°
2026-04-26 12:18 40.85461 27.43909 36989 ft 472 kts 148°
2026-04-26 12:19 40.79910 27.48518 36985 ft 472 kts 148°
2026-04-26 12:19 40.74357 27.53120 36989 ft 471 kts 148°
2026-04-26 12:20 40.68804 27.57711 36990 ft 471 kts 148°
2026-04-26 12:20 40.63246 27.62298 37000 ft 471 kts 148°
2026-04-26 12:21 40.57691 27.66874 36991 ft 471 kts 148°
2026-04-26 12:21 40.52133 27.71443 36996 ft 471 kts 148°
2026-04-26 12:22 40.46578 27.76000 36999 ft 471 kts 148°
2026-04-26 12:22 40.41020 27.80550 36996 ft 471 kts 148°
2026-04-26 12:23 40.35458 27.85096 36993 ft 470 kts 148°
2026-04-26 12:23 40.29909 27.89622 36993 ft 470 kts 148°
2026-04-26 12:24 40.24360 27.94138 36994 ft 469 kts 148°
2026-04-26 12:24 40.18813 27.98644 36993 ft 469 kts 148°
2026-04-26 12:25 40.10506 28.05376 36995 ft 468 kts 148°
2026-04-26 12:25 40.04969 28.09852 36999 ft 468 kts 147°
2026-04-26 12:26 39.99463 28.14296 36993 ft 468 kts 147°
2026-04-26 12:26 39.93922 28.18758 36992 ft 468 kts 147°
2026-04-26 12:27 39.88385 28.23209 36990 ft 468 kts 147°
2026-04-26 12:27 39.82840 28.27657 36987 ft 468 kts 147°
2026-04-26 12:28 39.77309 28.32085 36986 ft 467 kts 147°
2026-04-26 12:28 39.71769 28.36513 36983 ft 467 kts 147°
2026-04-26 12:29 39.66226 28.40934 36987 ft 467 kts 147°
2026-04-26 12:30 39.57933 28.47533 36983 ft 466 kts 147°
2026-04-26 12:30 39.52398 28.51926 36990 ft 466 kts 147°
2026-04-26 12:31 39.44107 28.58493 36987 ft 466 kts 147°
2026-04-26 12:31 39.38569 28.62869 36991 ft 466 kts 147°
2026-04-26 12:32 39.33045 28.67225 36991 ft 466 kts 147°
2026-04-26 12:33 39.24739 28.73761 36992 ft 466 kts 147°
2026-04-26 12:33 39.19201 28.78107 36989 ft 466 kts 147°
2026-04-26 12:34 39.13672 28.82439 36991 ft 465 kts 147°
2026-04-26 12:34 39.08143 28.86763 36990 ft 465 kts 147°
2026-04-26 12:35 39.02612 28.91080 36979 ft 464 kts 147°
2026-04-26 12:35 38.97095 28.95379 36981 ft 463 kts 147°
2026-04-26 12:36 38.91589 28.99661 36983 ft 463 kts 147°
2026-04-26 12:36 38.86082 29.03936 36982 ft 462 kts 147°
2026-04-26 12:37 38.80572 29.08206 36982 ft 462 kts 147°
2026-04-26 12:37 38.75111 29.12430 36981 ft 462 kts 147°
2026-04-26 12:38 38.70497 29.15992 36983 ft 461 kts 147°
2026-04-26 12:38 38.64115 29.20911 36979 ft 461 kts 147°
2026-04-26 12:39 38.58611 29.25145 36978 ft 461 kts 147°
2026-04-26 12:39 38.54007 29.28681 36971 ft 461 kts 147°
2026-04-26 12:40 38.48514 29.32892 36980 ft 460 kts 148°
2026-04-26 12:40 38.43031 29.37089 36974 ft 459 kts 148°
2026-04-26 12:41 38.37588 29.41247 36980 ft 459 kts 148°
2026-04-26 12:41 38.32115 29.45421 36983 ft 458 kts 148°
2026-04-26 12:42 38.26645 29.49585 36982 ft 458 kts 148°
2026-04-26 12:42 38.21186 29.53733 36984 ft 457 kts 148°
2026-04-26 12:43 38.15725 29.57876 36982 ft 457 kts 148°
2026-04-26 12:43 38.12991 29.59947 36782 ft 460 kts 148°
2026-04-26 12:43 38.10232 29.62036 36261 ft 461 kts 148°
2026-04-26 12:43 38.07483 29.64115 35644 ft 460 kts 147°
2026-04-26 12:44 38.04730 29.66194 34993 ft 460 kts 147°
2026-04-26 12:44 38.01977 29.68272 34327 ft 461 kts 147°
2026-04-26 12:44 37.99210 29.70359 33561 ft 464 kts 147°
2026-04-26 12:44 37.96443 29.72445 33000 ft 460 kts 147°
2026-04-26 12:45 37.93712 29.74500 32483 ft 456 kts 147°
2026-04-26 12:45 37.90996 29.76542 31987 ft 451 kts 147°
2026-04-26 12:45 37.88313 29.78559 31496 ft 447 kts 147°
2026-04-26 12:45 37.85655 29.80554 31021 ft 442 kts 147°
2026-04-26 12:46 37.83016 29.82534 30548 ft 438 kts 147°
2026-04-26 12:46 37.80407 29.84490 30083 ft 434 kts 147°
2026-04-26 12:46 37.77823 29.86426 29536 ft 430 kts 147°
2026-04-26 12:46 37.75274 29.88335 29040 ft 424 kts 147°
2026-04-26 12:47 37.72744 29.90227 28545 ft 419 kts 147°
2026-04-26 12:47 37.70254 29.92088 28061 ft 415 kts 147°
2026-04-26 12:47 37.67785 29.93932 27582 ft 410 kts 147°
2026-04-26 12:47 37.65343 29.95754 27097 ft 406 kts 148°
2026-04-26 12:48 37.62917 29.97564 26624 ft 403 kts 148°
2026-04-26 12:48 37.60511 29.99358 26170 ft 399 kts 148°
2026-04-26 12:48 37.58132 30.01129 25699 ft 396 kts 148°
2026-04-26 12:48 37.55775 30.02884 25408 ft 388 kts 148°
2026-04-26 12:49 37.53480 30.04589 25244 ft 378 kts 148°
2026-04-26 12:49 37.51243 30.06246 25079 ft 368 kts 149°
2026-04-26 12:49 37.48887 30.07407 24874 ft 363 kts 169°
2026-04-26 12:49 37.46383 30.07650 24686 ft 359 kts 177°
2026-04-26 12:50 37.43901 30.07706 24454 ft 354 kts 177°
2026-04-26 12:50 37.41434 30.07767 24237 ft 356 kts 177°
2026-04-26 12:50 37.38943 30.07705 24009 ft 362 kts 183°
2026-04-26 12:50 37.36429 30.07363 23789 ft 364 kts 186°
2026-04-26 12:51 37.33921 30.06940 23548 ft 362 kts 186°
2026-04-26 12:51 37.31435 30.06525 23266 ft 359 kts 186°
2026-04-26 12:51 37.28967 30.06138 23021 ft 356 kts 185°
2026-04-26 12:51 37.26546 30.05781 22779 ft 354 kts 185°
2026-04-26 12:52 37.24075 30.05429 22546 ft 352 kts 185°
2026-04-26 12:52 37.21662 30.05493 22228 ft 345 kts 162°
2026-04-26 12:52 37.19525 30.06780 21430 ft 345 kts 139°
2026-04-26 12:52 37.17932 30.09042 20467 ft 348 kts 120°
2026-04-26 12:53 37.16970 30.11810 19600 ft 348 kts 105°
2026-04-26 12:53 37.16336 30.14691 18910 ft 346 kts 104°
2026-04-26 12:53 37.15729 30.17644 18177 ft 344 kts 104°
2026-04-26 12:53 37.15149 30.20476 17790 ft 332 kts 104°
2026-04-26 12:54 37.14584 30.23194 17652 ft 313 kts 104°
2026-04-26 12:54 37.14034 30.25794 17457 ft 298 kts 104°
2026-04-26 12:54 37.13510 30.28248 16955 ft 295 kts 104°
2026-04-26 12:54 37.12973 30.30749 16348 ft 297 kts 104°
2026-04-26 12:55 37.12439 30.33221 15902 ft 292 kts 104°
2026-04-26 12:55 37.11909 30.35675 15382 ft 291 kts 104°
2026-04-26 12:55 37.11379 30.38118 14896 ft 289 kts 105°
2026-04-26 12:55 37.10853 30.40539 14392 ft 288 kts 105°
2026-04-26 12:56 37.10327 30.42960 13880 ft 288 kts 105°
2026-04-26 12:56 37.09801 30.45369 13441 ft 285 kts 105°
2026-04-26 12:56 37.09280 30.47751 12971 ft 283 kts 105°
2026-04-26 12:56 37.08794 30.50124 12589 ft 278 kts 100°
2026-04-26 12:57 37.08528 30.52497 12313 ft 271 kts 96°
2026-04-26 12:57 37.08330 30.54786 12214 ft 257 kts 97°
2026-04-26 12:57 37.08135 30.56979 11928 ft 250 kts 97°
2026-04-26 12:58 37.07977 30.61289 11117 ft 253 kts 74°
2026-04-26 12:58 37.08834 30.63188 10792 ft 253 kts 48°
2026-04-26 12:58 37.10296 30.64419 10409 ft 258 kts 23°
2026-04-26 12:58 37.12057 30.64910 10024 ft 260 kts
2026-04-26 12:59 37.13850 30.65140 9665 ft 259 kts
2026-04-26 12:59 37.15644 30.65335 9202 ft 259 kts
2026-04-26 12:59 37.17420 30.65522 8797 ft 254 kts
2026-04-26 12:59 37.19137 30.64983 8225 ft 261 kts 330°
2026-04-26 13:00 37.20439 30.63441 7751 ft 258 kts 302°
2026-04-26 13:00 37.21520 30.61672 7238 ft 258 kts 323°
2026-04-26 13:00 37.23092 30.60820 7195 ft 245 kts 355°
2026-04-26 13:00 37.24787 30.61091 7092 ft 247 kts 25°
2026-04-26 13:01 37.26114 30.62365 7044 ft 236 kts 57°
2026-04-26 13:01 37.26678 30.64193 7059 ft 230 kts 87°
2026-04-26 13:01 37.26380 30.66163 7040 ft 232 kts 118°
2026-04-26 13:01 37.25512 30.67879 7010 ft 233 kts 126°
2026-04-26 13:02 37.24596 30.69503 7026 ft 223 kts 126°
2026-04-26 13:02 37.23724 30.71041 7032 ft 209 kts 126°
2026-04-26 13:02 37.22902 30.72480 7013 ft 196 kts 126°
2026-04-26 13:02 37.22119 30.73851 7019 ft 193 kts 126°
2026-04-26 13:03 37.21328 30.75220 6865 ft 192 kts 127°
2026-04-26 13:03 37.20515 30.76532 6737 ft 189 kts 130°
2026-04-26 13:03 37.19693 30.77826 6482 ft 190 kts 129°
2026-04-26 13:03 37.18889 30.79113 6277 ft 185 kts 128°
2026-04-26 13:04 37.18099 30.80393 5853 ft 187 kts 128°
2026-04-26 13:04 37.17303 30.81678 5545 ft 185 kts 132°
2026-04-26 13:04 37.16222 30.82469 5122 ft 188 kts 173°
2026-04-26 13:04 37.14883 30.82494 4691 ft 193 kts 180°
2026-04-26 13:05 37.13543 30.82433 4396 ft 193 kts 183°
2026-04-26 13:05 37.12203 30.82296 4125 ft 193 kts 184°
2026-04-26 13:05 37.10888 30.82133 3919 ft 188 kts 186°
2026-04-26 13:05 37.09578 30.81937 3630 ft 190 kts 185°
2026-04-26 13:06 37.08273 30.81764 3418 ft 189 kts 185°
2026-04-26 13:06 37.06955 30.81592 3140 ft 189 kts 186°
2026-04-26 13:06 37.05690 30.81404 2890 ft 178 kts 184°
2026-04-26 13:06 37.04486 30.81226 2687 ft 171 kts 185°
2026-04-26 13:07 37.03321 30.81079 2470 ft 164 kts 185°
2026-04-26 13:07 37.02201 30.80933 2305 ft 154 kts 185°
2026-04-26 13:07 37.01149 30.80801 2020 ft 150 kts 184°
2026-04-26 13:07 37.00131 30.80663 1802 ft 143 kts 184°
2026-04-26 13:08 36.99136 30.80542 1593 ft 144 kts 188°
2026-04-26 13:08 36.98156 30.80383 1395 ft 141 kts 187°
2026-04-26 13:08 36.97184 30.80254 1225 ft 139 kts 186°
2026-04-26 13:08 36.96228 30.80127 1050 ft 139 kts 188°
2026-04-26 13:09 36.95284 30.79995 931 ft 141 kts 189°
2026-04-26 13:09 36.94286 30.79859 731 ft 146 kts 185°
2026-04-26 13:09 36.93310 30.79725 531 ft 137 kts 188°
2026-04-26 13:09 36.92366 30.79597 359 ft 138 kts 189°
2026-04-26 13:10 36.91392 30.79460 208 ft 140 kts 189°
2026-04-26 13:10 36.90533 30.79340 202 ft 99 kts 186°
2026-04-26 13:10 36.90074 30.79277 191 ft 34 kts 186°
2026-04-26 13:10 36.89847 30.79245 199 ft 31 kts 186°
2026-04-26 13:11 36.89652 30.79224 194 ft 25 kts 178°
2026-04-26 13:11 36.89533 30.79265 194 ft 11 kts 159°
2026-04-26 13:11 36.89477 30.79296 196 ft 7 kts 156°
2026-04-26 13:11 36.89462 30.79304 202 ft 1 kts 156°
2026-04-26 13:12 36.89456 30.79307 199 ft 1 kts 156°
2026-04-26 13:12 36.89450 30.79310 196 ft 1 kts 156°
2026-04-26 13:12 36.89444 30.79313 194 ft 1 kts 156°
2026-04-26 13:12 36.89433 30.79320 202 ft 4 kts 153°
2026-04-26 13:13 36.89429 30.79387 194 ft 14 kts 50°
2026-04-26 13:13 36.89552 30.79423 201 ft 22 kts
2026-04-26 13:13 36.89707 30.79445 193 ft 23 kts
2026-04-26 13:13 36.89860 30.79466 193 ft 22 kts
2026-04-26 13:14 36.90011 30.79487 190 ft 21 kts
2026-04-26 13:14 36.90156 30.79508 204 ft 21 kts
2026-04-26 13:14 36.90297 30.79528 202 ft 20 kts
2026-04-26 13:14 36.90431 30.79545 199 ft 19 kts
2026-04-26 13:15 36.90563 30.79563 204 ft 19 kts
2026-04-26 13:15 36.90691 30.79581 193 ft 18 kts
2026-04-26 13:15 36.90814 30.79598 192 ft 18 kts
2026-04-26 13:15 36.90893 30.79609 191 ft 17 kts
2026-04-26 13:16 36.91047 30.79633 205 ft 16 kts
2026-04-26 13:16 36.91157 30.79649 193 ft 16 kts
2026-04-26 13:16 36.91264 30.79662 196 ft 15 kts
2026-04-26 13:16 36.91365 30.79675 190 ft 14 kts
2026-04-26 13:17 36.91521 30.79756 190 ft 13 kts 87°
2026-04-26 13:17 36.91513 30.79850 190 ft 9 kts 96°
2026-04-26 13:18 36.91548 30.79927 190 ft 6 kts 11°
2026-04-26 13:18 36.91599 30.79936 190 ft 10 kts
2026-04-26 13:18 36.91704 30.80021 190 ft 11 kts 99°
2026-04-26 13:19 36.91694 30.80109 190 ft 10 kts 97°
2026-04-26 13:19 36.91665 30.80151 190 ft 7 kts 179°
2026-04-26 13:19 36.91631 30.80145 195 ft 1 kts 187°